Flag for Canada Weather past 2 weeks in Colchester County, Nova Scotia, Canada

Now
59 °F

Passing clouds.


Feels Like: 57 °F
Forecast: 56 / 71 °F
Wind: 9 mph from North

Location: Halifax International Airport

Current Time: Aug 22, 2014 at 1:18:08 AM

Latest Report: Aug 22, 2014 at 1:00 AM


Visibility: 15 mi

Pressure: 30.11 "Hg

Humidity: 94%

Dew point: 57 °F

Location of Colchester CountyLocation

Historic Weather in Colchester County — Graph

°F

Colchester County temperature yesterday

Maximum temperature yesterday: 72 °F (at 3:00 PM)
Minimum temperature yesterday: 55 °F (at 4:00 AM)
Average temperature yesterday: 63 °F

Past Weeks' High & Low Weather Summary

 TemperatureHumidityPressure
High79 °F (Aug 20, 4:00 PM)100% (Aug 7, 12:00 AM)30.19 "Hg (Aug 7, 12:00 AM)
Low55 °F (Aug 12, 3:00 AM)45% (Aug 20, 5:00 PM)29.59 "Hg (Aug 18, 2:00 PM)
Average64 °F82%29.93 "Hg
* Reported Midnight between Aug 6 and Aug 7 — Midnight between Aug 21 and Aug 22, Colchester County, Weather by CustomWeather, © 2014

Note: Actual official high and low records may vary slightly from our data, if they occured in-between our weather recording intervals... More about our weather records

Advertising

Colchester County weather history for previous 24 hours

 ConditionsComfort  
Time TempWeatherWind HumidityBarometerVisibility
12:00 AM
Aug 22
59 °FOvercast.7 mph94%30.12 "Hg15 mi
11:00 PM
Aug 21
61 °FOvercast.9 mph88%30.12 "Hg15 mi
10:00 PM63 °FPassing clouds.9 mph83%30.12 "Hg15 mi
9:00 PM63 °FPartly sunny.9 mph83%30.12 "Hg15 mi
8:00 PM64 °FPartly sunny.7 mph78%30.11 "Hg15 mi
7:00 PM66 °FPartly sunny.8 mph78%30.11 "Hg15 mi
6:00 PM70 °FPartly sunny.10 mph64%30.10 "Hg15 mi
5:00 PM72 °FPartly sunny.10 mph61%30.09 "Hg15 mi
4:00 PM70 °FPartly sunny.10 mph64%30.10 "Hg15 mi
3:00 PM72 °FPartly sunny.17 mph57%30.10 "Hg15 mi
2:00 PM70 °FBroken clouds.10 mph60%30.11 "Hg15 mi
1:00 PM70 °FOvercast.10 mph64%30.11 "Hg15 mi
12:00 PM68 °FPartly sunny.13 mph64%30.12 "Hg15 mi
11:00 AM68 °FBroken clouds.10 mph69%30.13 "Hg15 mi
10:00 AM66 °FBroken clouds.8 mph73%30.13 "Hg15 mi
9:00 AM63 °FScattered clouds.9 mph83%30.12 "Hg15 mi
8:00 AM59 °FScattered clouds.6 mph88%30.11 "Hg15 mi
7:00 AM55 °FPassing clouds.7 mph94%30.10 "Hg15 mi
6:00 AM55 °FPassing clouds.5 mph88%30.09 "Hg15 mi
5:00 AM55 °FClear.6 mph94%30.06 "Hg15 mi
4:00 AM55 °FClear.5 mph94%30.07 "Hg15 mi
3:00 AM57 °FPassing clouds.5 mph94%30.07 "Hg15 mi
2:00 AM57 °FPassing clouds.3 mph94%30.08 "Hg15 mi
1:00 AM57 °FPassing clouds.2 mph94%30.08 "Hg15 mi
Weather by CustomWeather, © 2014

See weather overviewHow to use our weather pages